TimeEDT,TemperatureF,Dew PointF,Humidity,Sea Level PressureIn,VisibilityMPH,Wind Direction,Wind SpeedMPH,Gust SpeedMPH,PrecipitationIn,Events,Conditions,WindDirDegrees,DateUTC
12:54 AM,57.0,37.9,49,30.00,10.0,South,10.4,-,N/A,,Clear,190,2011-10-26 04:54:00
1:54 AM,57.0,39.9,53,29.99,10.0,South,11.5,-,N/A,,Clear,190,2011-10-26 05:54:00
2:54 AM,57.9,42.1,56,29.99,10.0,SSW,12.7,-,N/A,,Clear,200,2011-10-26 06:54:00
3:54 AM,55.0,42.1,62,29.98,10.0,South,10.4,-,N/A,,Clear,190,2011-10-26 07:54:00
4:54 AM,57.0,43.0,59,29.96,10.0,SSW,12.7,-,N/A,,Clear,200,2011-10-26 08:54:00
5:54 AM,59.0,45.0,60,29.95,10.0,SSW,15.0,-,N/A,,Clear,200,2011-10-26 09:54:00
6:54 AM,59.0,46.0,62,29.94,10.0,SSW,13.8,-,N/A,,Clear,200,2011-10-26 10:54:00
7:54 AM,60.1,46.0,60,29.94,10.0,SSW,12.7,-,N/A,,Overcast,200,2011-10-26 11:54:00
8:54 AM,61.0,46.0,58,29.95,10.0,SSW,16.1,-,N/A,,Mostly Cloudy,210,2011-10-26 12:54:00
9:54 AM,62.1,46.9,58,29.94,10.0,SSW,15.0,24.2,0.00,,Scattered Clouds,210,2011-10-26 13:54:00
10:54 AM,63.0,48.0,58,29.94,10.0,SSW,15.0,-,N/A,,Overcast,210,2011-10-26 14:54:00
11:54 AM,63.0,48.9,60,29.94,9.0,SW,15.0,-,0.00,Rain,Light Rain,220,2011-10-26 15:54:00
12:54 PM,60.1,54.0,80,29.93,10.0,SW,9.2,-,0.03,,Scattered Clouds,230,2011-10-26 16:54:00
1:54 PM,62.1,55.0,78,29.89,10.0,SSW,8.1,-,0.00,,Overcast,200,2011-10-26 17:54:00
2:33 PM,62.6,55.4,77,29.91,7.0,WSW,8.1,-,0.00,Rain-Thunderstorm,Thunderstorms and Rain,250,2011-10-26 18:33:00
2:39 PM,62.6,55.4,77,29.91,2.0,WSW,10.4,18.4,0.02,Rain-Thunderstorm,Heavy Thunderstorms and Rain,240,2011-10-26 18:39:00
2:54 PM,59.0,57.2,94,29.90,2.0,South,11.5,-,N/A,Rain-Thunderstorm,Heavy Thunderstorms and Rain,190,2011-10-26 18:54:00
3:22 PM,59.0,57.2,94,29.90,4.0,SSW,8.1,-,0.08,Rain,Light Rain,210,2011-10-26 19:22:00
3:39 PM,57.2,57.2,100,29.89,1.5,SSW,5.8,-,0.14,Rain,Heavy Rain,200,2011-10-26 19:39:00
3:54 PM,57.9,57.0,97,29.87,3.0,South,5.8,-,0.21,Rain,Rain,170,2011-10-26 19:54:00
4:01 PM,57.2,57.2,100,29.88,2.0,SSE,3.5,-,0.04,Rain,Rain,150,2011-10-26 20:01:00
4:24 PM,59.0,57.2,94,29.89,2.0,West,5.8,-,0.05,Rain-Thunderstorm,Thunderstorms and Rain,260,2011-10-26 20:24:00
4:54 PM,59.0,57.0,93,29.86,7.0,South,4.6,-,0.11,Rain,Light Rain,170,2011-10-26 20:54:00
5:08 PM,59.0,57.2,94,29.87,2.5,Calm,Calm,-,0.03,Rain,Light Rain,0,2011-10-26 21:08:00
5:28 PM,59.0,57.2,94,29.88,3.0,SSW,5.8,-,0.04,Rain,Light Rain,200,2011-10-26 21:28:00
5:30 PM,59.0,57.2,94,29.87,1.8,SSW,5.8,-,0.04,Rain,Heavy Rain,200,2011-10-26 21:30:00
5:43 PM,59.0,57.2,94,29.87,4.0,South,4.6,-,0.17,Rain,Light Rain,190,2011-10-26 21:43:00
5:54 PM,59.0,57.0,93,29.86,8.0,South,8.1,-,0.17,Rain,Light Rain,190,2011-10-26 21:54:00
6:54 PM,61.0,59.0,93,29.86,7.0,South,8.1,-,0.00,,Overcast,190,2011-10-26 22:54:00
7:54 PM,60.8,59.0,94,29.88,2.5,SW,3.5,-,N/A,Rain,Heavy Rain,220,2011-10-26 23:54:00
8:02 PM,60.8,60.8,100,29.87,2.0,Calm,Calm,-,0.04,Rain,Rain,0,2011-10-27 00:02:00
8:06 PM,60.8,59.0,94,29.87,3.0,SSW,3.5,-,0.05,Rain,Light Rain,200,2011-10-27 00:06:00
8:17 PM,60.8,59.0,94,29.87,2.5,South,5.8,-,0.05,,Overcast,180,2011-10-27 00:17:00
8:54 PM,60.1,59.0,96,29.85,2.5,South,3.5,-,0.05,,Overcast,190,2011-10-27 00:54:00
9:01 PM,59.0,59.0,100,29.86,3.0,SSW,4.6,-,N/A,,Overcast,200,2011-10-27 01:01:00
9:05 PM,59.0,59.0,100,29.86,2.5,South,4.6,-,N/A,,Overcast,190,2011-10-27 01:05:00
9:20 PM,59.0,59.0,100,29.85,1.5,SSE,3.5,-,N/A,,Mostly Cloudy,160,2011-10-27 01:20:00
9:38 PM,60.8,59.0,94,29.85,2.0,South,4.6,-,N/A,,Overcast,170,2011-10-27 01:38:00
9:50 PM,59.0,59.0,100,29.85,1.5,South,4.6,-,0.00,Rain,Light Rain,180,2011-10-27 01:50:00
9:54 PM,59.0,59.0,100,29.84,1.5,South,4.6,-,0.00,Rain,Light Rain,190,2011-10-27 01:54:00
10:08 PM,59.0,59.0,100,29.84,2.0,South,4.6,-,0.00,Rain,Light Rain,170,2011-10-27 02:08:00
10:54 PM,60.1,59.0,96,29.83,3.0,SW,4.6,-,0.01,Rain,Light Rain,220,2011-10-27 02:54:00
11:54 PM,60.8,59.0,94,29.84,4.0,SW,8.1,-,N/A,Rain,Light Rain,220,2011-10-27 03:54:00